This is the latest recevied weather packets stored in our database for station/object WP4PW. If no packets are shown the sender has not sent any weather packets the latest 1 day(s).
| Time | Temp. | Humidity | Pressure | Rain* | Wind** | Luminosity | Snow |
|---|---|---|---|---|---|---|---|
| 1777981006 | 28.33° C | 87% | 1021.2 hPa | 0 mm | 0.89 m/s, 132° | 122 W/m² | - |
| 1777980703 | 28.33° C | 86% | 1021.1 hPa | 0 mm | 1.34 m/s, 76° | 129 W/m² | - |
| 1777980399 | 28.33° C | 86% | 1021.2 hPa | 0 mm | 0 m/s | 101 W/m² | - |
| 1777980097 | 27.78° C | 87% | 1020.9 hPa | 0 mm | 0.89 m/s, 180° | 87 W/m² | - |
| 1777979791 | 27.78° C | 86% | 1020.9 hPa | 0 mm | 1.79 m/s, 155° | 81 W/m² | - |
| 1777979488 | 27.78° C | 88% | 1020.8 hPa | 0 mm | 0.89 m/s, 133° | 77 W/m² | - |
| 1777979184 | 27.22° C | 89% | 1020.5 hPa | 0 mm | 0.89 m/s, 141° | 69 W/m² | - |
| 1777978882 | 26.67° C | 91% | 1020.8 hPa | 0 mm | 0.89 m/s, 137° | 81 W/m² | - |
| 1777978578 | 26.11° C | 93% | 1020.6 hPa | 0 mm | 0.89 m/s, 142° | 104 W/m² | - |
| 1777978274 | 25.56° C | 94% | 1020.7 hPa | 0 mm | 0.89 m/s, 166° | 104 W/m² | - |
| 1777977971 | 25.56° C | 95% | 1020.6 hPa | 0 mm | 0.45 m/s, 126° | 90 W/m² | - |
| 1777977669 | 25° C | 96% | 1020.5 hPa | 0 mm | 0 m/s | 64 W/m² | - |
| 1777977365 | 25° C | 97% | 1020.3 hPa | 0 mm | 0.45 m/s, 164° | 35 W/m² | - |
| 1777977062 | 25° C | 97% | 1020.4 hPa | 0 mm | 0.89 m/s, 132° | 33 W/m² | - |
| 1777976759 | 25° C | 97% | 1020.2 hPa | 0 mm | 0.89 m/s, 176° | 40 W/m² | - |
| 1777976457 | 24.44° C | 98% | 1020.3 hPa | 0 mm | 0 m/s | 28 W/m² | - |
| 1777976156 | 24.44° C | 98% | 1020.1 hPa | 0 mm | 0 m/s | 18 W/m² | - |
| 1777975851 | 24.44° C | 98% | 1020.1 hPa | 0 mm | 0.45 m/s, 130° | 15 W/m² | - |
| 1777975548 | 24.44° C | 98% | 1020 hPa | 0 mm | 0 m/s | 11 W/m² | - |
| 1777975245 | 24.44° C | 98% | 1020.3 hPa | 0 mm | 0.45 m/s, 126° | 6 W/m² | - |
| 1777974941 | 24.44° C | 98% | 1020 hPa | 0 mm | 0.45 m/s, 123° | 4 W/m² | - |
| 1777974638 | 24.44° C | 98% | 1020.1 hPa | 0 mm | 0 m/s | 2 W/m² | - |
| 1777974334 | 24.44° C | 98% | 1020 hPa | 0 mm | 0 m/s | 1 W/m² | - |
| 1777974031 | 24.44° C | 98% | 1019.8 hPa | 0 mm | 0.45 m/s, 133° | 0 W/m² | - |
| 1777973727 | 24.44° C | 98% | 1019.9 hPa | 0 mm | 0 m/s | 0 W/m² | - |
* Rain latest hour (hover to see other rain measurements)
** Current wind speed in m/s (hover to see current wind gust speed)